Data No,UTC Date,UTC Time,Latitude,Longitude,Course(deg),Temp(degC),Sal(psu)
691,2022/8/20,11:30,35-35.76N,139-47.21E,200,27.258,22.8696
692,2022/8/20,11:31,35-35.55N,139-47.18E,180,27.482,23.0915
693,2022/8/20,11:32,35-35.37N,139-47.27E,149,27.569,23.0845
694,2022/8/20,11:33,35-35.18N,139-47.44E,144,27.012,22.6069
695,2022/8/20,11:34,35-34.99N,139-47.61E,144,26.865,22.335
696,2022/8/20,11:35,35-34.77N,139-47.80E,144,26.787,23.264
697,2022/8/20,11:36,35-34.58N,139-48.03E,129,26.879,24.2405
698,2022/8/20,11:37,35-34.42N,139-48.29E,126,26.822,24.7319
699,2022/8/20,11:38,35-34.25N,139-48.59E,126,26.994,25.114
700,2022/8/20,11:39,35-34.08N,139-48.86E,126,27.033,25.3568
701,2022/8/20,11:40,35-33.90N,139-49.15E,127,27.056,25.4374
702,2022/8/20,11:41,35-33.72N,139-49.45E,126,27.114,25.6166
703,2022/8/20,11:42,35-33.56N,139-49.73E,125,27.113,25.814
704,2022/8/20,11:43,35-33.37N,139-50.02E,128,27.221,25.799
705,2022/8/20,11:44,35-33.18N,139-50.29E,131,27.197,25.7006
706,2022/8/20,11:45,35-32.98N,139-50.55E,140,27.229,25.3331
707,2022/8/20,11:46,35-32.70N,139-50.66E,170,27.361,25.1898
708,2022/8/20,11:47,35-32.43N,139-50.70E,172,27.25,24.9445
709,2022/8/20,11:48,35-32.15N,139-50.74E,172,27.268,24.177
710,2022/8/20,11:49,35-31.87N,139-50.79E,172,27.372,24.8165
711,2022/8/20,11:50,35-31.59N,139-50.83E,172,27.519,25.4491
712,2022/8/20,11:51,35-31.30N,139-50.88E,171,27.489,25.9469
713,2022/8/20,11:52,35-31.03N,139-50.92E,172,27.514,26.2447
714,2022/8/20,11:53,35-30.74N,139-50.96E,172,27.528,26.4541
715,2022/8/20,11:54,35-30.46N,139-51.00E,174,27.655,26.5888
716,2022/8/20,11:55,35-30.17N,139-50.96E,191,27.796,26.5891
717,2022/8/20,11:56,35-29.88N,139-50.88E,192,27.845,26.3545
718,2022/8/20,11:57,35-29.60N,139-50.80E,193,27.865,25.79
719,2022/8/20,11:58,35-29.35N,139-50.64E,213,27.982,26.0845
720,2022/8/20,11:59,35-29.11N,139-50.43E,216,27.852,26.0906
721,2022/8/20,12:00,35-28.91N,139-50.16E,230,27.965,26.0454
722,2022/8/20,12:01,35-28.72N,139-49.87E,230,27.757,26.1626
723,2022/8/20,12:02,35-28.54N,139-49.60E,230,27.706,26.2873
724,2022/8/20,12:03,35-28.35N,139-49.32E,230,27.673,26.4722
725,2022/8/20,12:04,35-28.16N,139-49.04E,231,27.599,26.6335
726,2022/8/20,12:05,35-27.98N,139-48.75E,231,27.615,26.7648
727,2022/8/20,12:06,35-27.79N,139-48.46E,231,27.633,26.8762
728,2022/8/20,12:07,35-27.62N,139-48.19E,231,27.608,26.9006
729,2022/8/20,12:08,35-27.44N,139-47.90E,231,27.473,26.94
730,2022/8/20,12:09,35-27.26N,139-47.61E,232,27.509,27.0823
731,2022/8/20,12:10,35-27.08N,139-47.33E,231,27.422,27.1201
732,2022/8/20,12:11,35-26.89N,139-47.04E,231,27.398,27.1266
733,2022/8/20,12:12,35-26.72N,139-46.76E,232,27.427,27.2337
734,2022/8/20,12:13,35-26.53N,139-46.47E,232,27.346,27.2071
735,2022/8/20,12:14,35-26.36N,139-46.19E,232,27.397,27.2316
736,2022/8/20,12:15,35-26.18N,139-45.90E,232,27.359,27.2597
737,2022/8/20,12:16,35-26.00N,139-45.62E,228,27.311,27.2573
738,2022/8/20,12:17,35-25.80N,139-45.38E,224,27.172,27.2109
739,2022/8/20,12:18,35-25.61N,139-45.13E,230,27.373,27.3301
740,2022/8/20,12:19,35-25.43N,139-44.84E,232,27.225,27.3385
741,2022/8/20,12:20,35-25.26N,139-44.56E,233,27.245,27.1707
742,2022/8/20,12:21,35-25.08N,139-44.26E,233,27.138,27.2292
743,2022/8/20,12:22,35-24.90N,139-43.97E,233,27.133,27.3303
744,2022/8/20,12:23,35-24.73N,139-43.67E,233,26.968,27.426
745,2022/8/20,12:24,35-24.54N,139-43.36E,234,27.122,27.5528
746,2022/8/20,12:25,35-24.34N,139-43.10E,216,27.185,27.5974
747,2022/8/20,12:26,35-24.07N,139-42.95E,203,27.117,27.6941
748,2022/8/20,12:27,35-23.80N,139-42.80E,204,27.088,27.5518
749,2022/8/20,12:28,35-23.52N,139-42.65E,204,27.041,27.5876
750,2022/8/20,12:29,35-23.23N,139-42.49E,203,27.063,27.8083
751,2022/8/20,12:30,35-22.96N,139-42.35E,197,27.111,27.9318
752,2022/8/20,12:31,35-22.67N,139-42.34E,179,27.161,27.9765
753,2022/8/20,12:32,35-22.38N,139-42.35E,177,27.173,27.9591
754,2022/8/20,12:33,35-22.10N,139-42.37E,176,27.128,27.9827
755,2022/8/20,12:34,35-21.81N,139-42.39E,176,27.112,28.0815
756,2022/8/20,12:35,35-21.54N,139-42.42E,176,27.135,28.1495
757,2022/8/20,12:36,35-21.25N,139-42.44E,175,27.011,28.2318
758,2022/8/20,12:37,35-20.99N,139-42.47E,175,27.011,28.2129
759,2022/8/20,12:38,35-20.73N,139-42.50E,174,27.129,28.246
760,2022/8/20,12:39,35-20.48N,139-42.53E,173,27.178,28.2279
761,2022/8/20,12:40,35-20.25N,139-42.56E,173,27.178,28.1055
762,2022/8/20,12:41,35-20.02N,139-42.59E,173,27.112,27.9133
763,2022/8/20,12:42,35-19.81N,139-42.64E,162,27.303,27.8362
764,2022/8/20,12:43,35-19.63N,139-42.76E,147,27.301,27.7962
765,2022/8/20,12:44,35-19.45N,139-42.91E,144,27.062,27.633
766,2022/8/20,12:45,35-19.28N,139-43.06E,144,27.049,27.5934
767,2022/8/20,12:46,35-19.10N,139-43.22E,144,27.07,27.7712
768,2022/8/20,12:47,35-18.93N,139-43.36E,144,27.086,27.8441
769,2022/8/20,12:48,35-18.76N,139-43.51E,144,27.103,27.8646
770,2022/8/20,12:49,35-18.58N,139-43.67E,145,27.153,27.9508
771,2022/8/20,12:50,35-18.40N,139-43.82E,145,27.142,28.005
772,2022/8/20,12:51,35-18.23N,139-43.97E,145,27.193,28.0345
773,2022/8/20,12:52,35-18.05N,139-44.12E,145,27.247,28.0065
774,2022/8/20,12:53,35-17.85N,139-44.29E,144,27.286,28.0371
775,2022/8/20,12:54,35-17.68N,139-44.44E,144,27.263,28.0741
776,2022/8/20,12:55,35-17.53N,139-44.56E,144,27.251,28.2181
777,2022/8/20,12:56,35-17.34N,139-44.72E,144,27.186,28.2791
778,2022/8/20,12:57,35-17.18N,139-44.87E,144,27.219,28.3356
779,2022/8/20,12:58,35-17.00N,139-45.02E,144,27.179,28.3601
780,2022/8/20,12:59,35-16.82N,139-45.18E,144,27.116,28.3939
781,2022/8/20,13:00,35-16.65N,139-45.33E,144,27.101,28.4693
782,2022/8/20,13:01,35-16.47N,139-45.49E,144,27.109,28.5616
783,2022/8/20,13:02,35-16.29N,139-45.64E,145,27.09,28.5528
784,2022/8/20,13:03,35-16.11N,139-45.79E,145,27.051,28.5188
785,2022/8/20,13:04,35-15.93N,139-45.94E,145,26.972,28.5205
786,2022/8/20,13:05,35-15.75N,139-46.09E,145,26.606,28.5169
787,2022/8/20,13:06,35-15.56N,139-46.23E,153,26.877,28.6739
788,2022/8/20,13:07,35-15.36N,139-46.31E,165,27.075,28.818
789,2022/8/20,13:08,35-15.14N,139-46.34E,175,27.149,28.767
790,2022/8/20,13:09,35-14.92N,139-46.36E,176,26.721,28.6034
791,2022/8/20,13:10,35-14.70N,139-46.37E,177,26.601,28.6211
792,2022/8/20,13:11,35-14.48N,139-46.38E,178,26.632,28.8076
793,2022/8/20,13:12,35-14.23N,139-46.39E,178,26.507,28.9519
794,2022/8/20,13:13,35-14.02N,139-46.40E,177,26.477,29.0839
795,2022/8/20,13:14,35-13.80N,139-46.41E,178,26.52,29.1706
796,2022/8/20,13:15,35-13.62N,139-46.42E,179,26.602,29.3233
797,2022/8/20,13:16,35-13.40N,139-46.42E,180,26.546,29.43
798,2022/8/20,13:17,35-13.19N,139-46.41E,180,26.34,29.4755
799,2022/8/20,13:18,35-12.95N,139-46.41E,180,26.194,29.6466
800,2022/8/20,13:19,35-12.71N,139-46.40E,181,26.248,29.8895
801,2022/8/20,13:20,35-12.49N,139-46.35E,192,26.376,30.0056
802,2022/8/20,13:21,35-12.24N,139-46.27E,193,25.868,30.028
803,2022/8/20,13:22,35-11.96N,139-46.19E,193,25.843,30.0329
804,2022/8/20,13:23,35-11.67N,139-46.10E,194,25.915,30.0993
805,2022/8/20,13:24,35-11.37N,139-46.00E,195,25.974,30.0809
806,2022/8/20,13:25,35-11.08N,139-45.91E,195,26.014,30.0309
807,2022/8/20,13:26,35-10.79N,139-45.79E,198,26.12,29.9885
808,2022/8/20,13:27,35-10.50N,139-45.67E,198,26.083,29.9328
809,2022/8/20,13:28,35-10.20N,139-45.55E,198,26.278,29.8392
810,2022/8/20,13:29,35-09.89N,139-45.42E,198,26.183,29.8149
811,2022/8/20,13:30,35-09.62N,139-45.31E,198,26.284,29.8284
812,2022/8/20,13:31,35-09.32N,139-45.18E,198,26.301,29.9254
813,2022/8/20,13:32,35-09.03N,139-45.06E,198,26.229,30.0364
814,2022/8/20,13:33,35-08.75N,139-44.94E,199,26.08,30.1078
815,2022/8/20,13:34,35-08.44N,139-44.81E,199,25.997,30.2092
816,2022/8/20,13:35,35-08.16N,139-44.69E,199,25.877,30.2839
817,2022/8/20,13:36,35-07.87N,139-44.57E,199,25.641,30.4006
818,2022/8/20,13:37,35-07.58N,139-44.44E,199,25.697,30.4884
819,2022/8/20,13:38,35-07.29N,139-44.33E,195,25.552,30.5171
820,2022/8/20,13:39,35-06.99N,139-44.24E,193,25.772,30.5737
821,2022/8/20,13:40,35-06.71N,139-44.16E,193,25.943,30.6598
822,2022/8/20,13:41,35-06.41N,139-44.06E,194,26.005,30.6259
823,2022/8/20,13:42,35-06.12N,139-43.97E,194,26.166,30.6099
824,2022/8/20,13:43,35-05.83N,139-43.88E,194,25.864,30.6125
825,2022/8/20,13:44,35-05.54N,139-43.79E,193,24.711,30.6484
826,2022/8/20,13:45,35-05.25N,139-43.71E,193,24.192,30.9343
827,2022/8/20,13:46,35-04.95N,139-43.62E,193,23.955,31.3595
828,2022/8/20,13:47,35-04.66N,139-43.54E,193,24.088,31.602
829,2022/8/20,13:48,35-04.38N,139-43.46E,193,24.047,31.7361
830,2022/8/20,13:49,35-04.09N,139-43.37E,193,24.228,31.7787
831,2022/8/20,13:50,35-03.79N,139-43.29E,192,24.326,31.7777
832,2022/8/20,13:51,35-03.51N,139-43.21E,192,24.513,31.7611
833,2022/8/20,13:52,35-03.21N,139-43.14E,187,24.506,31.7288
834,2022/8/20,13:53,35-02.93N,139-43.13E,179,24.387,31.7483
835,2022/8/20,13:54,35-02.63N,139-43.13E,179,24.451,31.8911
836,2022/8/20,13:55,35-02.34N,139-43.13E,180,24.53,31.9803
837,2022/8/20,13:56,35-02.04N,139-43.13E,180,24.816,32.0427
838,2022/8/20,13:57,35-01.74N,139-43.11E,184,25.003,32.1721
839,2022/8/20,13:58,35-01.45N,139-43.06E,188,25.136,32.3834
840,2022/8/20,13:59,35-01.15N,139-43.01E,188,25.162,32.4979
841,2022/8/20,14:00,35-00.87N,139-42.95E,188,25.222,32.6094
842,2022/8/20,14:01,35-00.58N,139-42.90E,187,25.33,32.6866
843,2022/8/20,14:02,35-00.28N,139-42.85E,187,25.349,32.7312
844,2022/8/20,14:03,34-59.99N,139-42.80E,187,25.194,32.7627
845,2022/8/20,14:04,34-59.69N,139-42.75E,187,24.97,32.7831
846,2022/8/20,14:05,34-59.40N,139-42.71E,186,24.504,32.8219
847,2022/8/20,14:06,34-59.09N,139-42.66E,186,24.507,32.8687
848,2022/8/20,14:07,34-58.81N,139-42.63E,182,24.818,32.9498
849,2022/8/20,14:08,34-58.50N,139-42.62E,180,25.084,32.9802
850,2022/8/20,14:09,34-58.21N,139-42.63E,176,25.076,32.9772
851,2022/8/20,14:10,34-57.92N,139-42.68E,168,24.952,32.9677
852,2022/8/20,14:11,34-57.63N,139-42.80E,159,25.061,32.97
853,2022/8/20,14:12,34-57.36N,139-42.97E,149,25.101,32.9746
854,2022/8/20,14:13,34-57.11N,139-43.17E,145,25.039,32.9705
855,2022/8/20,14:14,34-56.84N,139-43.38E,149,25.139,32.9684
856,2022/8/20,14:15,34-56.57N,139-43.56E,150,25.13,32.9728
857,2022/8/20,14:16,34-56.29N,139-43.75E,151,25.084,32.9666
858,2022/8/20,14:17,34-56.01N,139-43.94E,151,25.089,32.9729
859,2022/8/20,14:18,34-55.73N,139-44.12E,151,25.064,32.9756
860,2022/8/20,14:19,34-55.45N,139-44.31E,150,25.058,32.9789
861,2022/8/20,14:20,34-55.17N,139-44.50E,150,25.029,32.9807
862,2022/8/20,14:21,34-54.89N,139-44.69E,151,24.939,32.9816
863,2022/8/20,14:22,34-54.59N,139-44.88E,151,24.868,32.9851
864,2022/8/20,14:23,34-54.31N,139-45.06E,151,24.898,32.9875
865,2022/8/20,14:24,34-54.02N,139-45.25E,152,24.839,32.9935
866,2022/8/20,14:25,34-53.74N,139-45.44E,149,24.8,32.9953
867,2022/8/20,14:26,34-53.47N,139-45.66E,145,24.655,32.9976
868,2022/8/20,14:27,34-53.22N,139-45.91E,139,24.801,33.0054
869,2022/8/20,14:28,34-52.98N,139-46.16E,140,24.755,33.0105
870,2022/8/20,14:29,34-52.73N,139-46.44E,136,24.702,33.0073
871,2022/8/20,14:30,34-52.48N,139-46.73E,136,24.798,33.0085
872,2022/8/20,14:31,34-52.24N,139-47.00E,136,24.837,33.0106
873,2022/8/20,14:32,34-51.98N,139-47.30E,136,24.787,33.0083
874,2022/8/20,14:33,34-51.74N,139-47.58E,136,24.743,33.0059
875,2022/8/20,14:34,34-51.47N,139-47.88E,137,24.663,33.0063
876,2022/8/20,14:35,34-51.24N,139-48.15E,133,24.339,33.0108
877,2022/8/20,14:36,34-51.00N,139-48.46E,132,24.461,33.0195
878,2022/8/20,14:37,34-50.80N,139-48.77E,124,23.789,33.0404
879,2022/8/20,14:38,34-50.63N,139-49.11E,122,24.206,33.0764
880,2022/8/20,14:39,34-50.47N,139-49.47E,117,24.242,33.1268
881,2022/8/20,14:40,34-50.32N,139-49.81E,115,24.227,33.1112
882,2022/8/20,14:41,34-50.20N,139-50.18E,111,24.373,33.0857
883,2022/8/20,14:42,34-50.10N,139-50.55E,106,23.033,33.0922
884,2022/8/20,14:43,34-50.01N,139-50.92E,106,22.811,33.1361
885,2022/8/20,14:44,34-49.92N,139-51.30E,106,22.157,33.1976
886,2022/8/20,14:45,34-49.84N,139-51.66E,102,21.425,33.2823
887,2022/8/20,14:46,34-49.81N,139-52.03E,91,21.143,33.3828
888,2022/8/20,14:47,34-49.81N,139-52.43E,90,20.932,33.4475
889,2022/8/20,14:48,34-49.81N,139-52.77E,90,21.201,33.5558
890,2022/8/20,14:49,34-49.80N,139-53.15E,90,22.052,33.6009
891,2022/8/20,14:50,34-49.83N,139-53.50E,82,22.298,33.6048
892,2022/8/20,14:51,34-49.89N,139-53.85E,76,22.647,33.5742
893,2022/8/20,14:52,34-49.97N,139-54.20E,74,21.148,33.5569
894,2022/8/20,14:53,34-50.06N,139-54.53E,70,19.866,33.4785
895,2022/8/20,14:54,34-50.16N,139-54.87E,70,20.212,33.5841
896,2022/8/20,14:55,34-50.26N,139-55.21E,70,20.724,33.6911
897,2022/8/20,14:56,34-50.35N,139-55.55E,71,21.067,33.717
898,2022/8/20,14:57,34-50.45N,139-55.89E,71,21.096,33.7089
899,2022/8/20,14:58,34-50.54N,139-56.22E,69,20.638,33.6989
900,2022/8/20,14:59,34-50.67N,139-56.54E,61,20.445,33.7125
901,2022/8/20,15:00,34-50.82N,139-56.85E,60,20.757,33.7597
902,2022/8/20,15:01,34-50.97N,139-57.16E,60,20.593,33.7798
903,2022/8/20,15:02,34-51.12N,139-57.48E,60,20.394,33.8023
904,2022/8/20,15:03,34-51.27N,139-57.79E,59,20.052,33.8178
905,2022/8/20,15:04,34-51.41N,139-58.11E,60,20.137,33.8624
906,2022/8/20,15:05,34-51.57N,139-58.43E,60,20.236,33.8685
907,2022/8/20,15:06,34-51.72N,139-58.75E,59,19.666,33.8744
908,2022/8/20,15:07,34-51.87N,139-59.06E,60,19.976,33.87
909,2022/8/20,15:08,34-52.02N,139-59.37E,59,19.989,33.9056
910,2022/8/20,15:09,34-52.17N,139-59.69E,59,20.383,33.9119
911,2022/8/20,15:10,34-52.32N,140-00.01E,60,20.724,33.9216
912,2022/8/20,15:11,34-52.47N,140-00.32E,59,20.942,33.9226
913,2022/8/20,15:12,34-52.62N,140-00.64E,59,21.013,33.916
914,2022/8/20,15:13,34-52.77N,140-00.95E,60,21.079,33.9138
915,2022/8/20,15:14,34-52.92N,140-01.26E,59,20.879,33.9114
916,2022/8/20,15:15,34-53.08N,140-01.58E,61,20.271,33.9034
917,2022/8/20,15:16,34-53.19N,140-01.92E,70,20.443,33.898
918,2022/8/20,15:17,34-53.29N,140-02.26E,70,20.416,33.9053
919,2022/8/20,15:18,34-53.39N,140-02.60E,70,20.425,33.904
920,2022/8/20,15:19,34-53.49N,140-02.94E,71,20.639,33.8958
921,2022/8/20,15:20,34-53.58N,140-03.28E,71,20.625,33.8953
922,2022/8/20,15:21,34-53.67N,140-03.61E,70,20.773,33.889
923,2022/8/20,15:22,34-53.77N,140-03.94E,70,19.953,33.8884
924,2022/8/20,15:23,34-53.86N,140-04.26E,70,19.929,33.8698
925,2022/8/20,15:24,34-53.95N,140-04.58E,69,20.119,33.8951
926,2022/8/20,15:25,34-54.05N,140-04.90E,69,20.11,33.9126
927,2022/8/20,15:26,34-54.15N,140-05.21E,68,20.094,33.9164
928,2022/8/20,15:27,34-54.26N,140-05.53E,68,20.253,33.9212
929,2022/8/20,15:28,34-54.35N,140-05.84E,69,20.317,33.9258
930,2022/8/20,15:29,34-54.46N,140-06.16E,68,20.274,33.9234
931,2022/8/20,15:30,34-54.56N,140-06.48E,68,20.36,33.9181
932,2022/8/20,15:31,34-54.66N,140-06.79E,68,20.346,33.9157
933,2022/8/20,15:32,34-54.77N,140-07.10E,68,20.48,33.9104
934,2022/8/20,15:33,34-54.87N,140-07.41E,68,20.77,33.91
935,2022/8/20,15:34,34-54.97N,140-07.73E,68,21.028,33.9144
936,2022/8/20,15:35,34-55.07N,140-08.05E,68,21.331,33.9028
937,2022/8/20,15:36,34-55.17N,140-08.36E,68,21.222,33.9028
938,2022/8/20,15:37,34-55.28N,140-08.68E,69,21.187,33.8902
939,2022/8/20,15:38,34-55.39N,140-08.99E,61,20.996,33.8641
940,2022/8/20,15:39,34-55.53N,140-09.27E,57,20.947,33.8408
941,2022/8/20,15:40,34-55.68N,140-09.56E,57,21.098,33.8362
942,2022/8/20,15:41,34-55.84N,140-09.85E,58,21.566,33.8344
943,2022/8/20,15:42,34-55.98N,140-10.14E,58,21.556,33.8449
944,2022/8/20,15:43,34-56.13N,140-10.43E,57,21.8,33.8418
945,2022/8/20,15:44,34-56.28N,140-10.72E,57,21.83,33.8252
946,2022/8/20,15:45,34-56.44N,140-11.01E,53,21.451,33.8223
947,2022/8/20,15:46,34-56.61N,140-11.27E,52,21.903,33.7956
948,2022/8/20,15:47,34-56.78N,140-11.56E,54,21.948,33.794
949,2022/8/20,15:48,34-56.94N,140-11.84E,55,21.549,33.7799
950,2022/8/20,15:49,34-57.10N,140-12.13E,55,21.726,33.7647
951,2022/8/20,15:50,34-57.26N,140-12.42E,55,21.588,33.7684
952,2022/8/20,15:51,34-57.43N,140-12.70E,54,21.425,33.7677
953,2022/8/20,15:52,34-57.59N,140-12.99E,55,21.631,33.7834
954,2022/8/20,15:53,34-57.76N,140-13.28E,55,21.402,33.7996
955,2022/8/20,15:54,34-57.91N,140-13.56E,55,21.302,33.8036
956,2022/8/20,15:55,34-58.08N,140-13.85E,55,20.776,33.8129
957,2022/8/20,15:56,34-58.24N,140-14.13E,55,20.771,33.8006
958,2022/8/20,15:57,34-58.40N,140-14.41E,55,21,33.8176
959,2022/8/20,15:58,34-58.56N,140-14.70E,55,21.012,33.8074
960,2022/8/20,15:59,34-58.72N,140-14.97E,55,21.18,33.8076
961,2022/8/20,16:00,34-58.88N,140-15.26E,55,21.372,33.8213
962,2022/8/20,16:01,34-59.04N,140-15.54E,55,21.564,33.812
963,2022/8/20,16:02,34-59.20N,140-15.83E,55,21.726,33.8105
964,2022/8/20,16:03,34-59.36N,140-16.10E,55,21.786,33.8104
965,2022/8/20,16:04,34-59.51N,140-16.38E,55,21.809,33.8087
966,2022/8/20,16:05,34-59.67N,140-16.66E,55,21.69,33.8127
967,2022/8/20,16:06,34-59.83N,140-16.94E,55,21.798,33.8189
968,2022/8/20,16:07,35-00.00N,140-17.23E,54,21.799,33.826
969,2022/8/20,16:08,35-00.14N,140-17.50E,56,21.911,33.8324
970,2022/8/20,16:09,35-00.30N,140-17.78E,55,21.966,33.8342
971,2022/8/20,16:10,35-00.46N,140-18.06E,54,22.014,33.8348
972,2022/8/20,16:11,35-00.62N,140-18.33E,55,21.879,33.8362
973,2022/8/20,16:12,35-00.75N,140-18.64E,66,21.786,33.829
974,2022/8/20,16:13,35-00.85N,140-18.96E,68,21.343,33.826
975,2022/8/20,16:14,35-00.95N,140-19.26E,68,21.238,33.7906
976,2022/8/20,16:15,35-01.05N,140-19.57E,68,21.206,33.786
977,2022/8/20,16:16,35-01.15N,140-19.87E,68,21.195,33.7856
978,2022/8/20,16:17,35-01.25N,140-20.18E,68,21.215,33.7903
979,2022/8/20,16:18,35-01.35N,140-20.49E,67,21.268,33.7882
980,2022/8/20,16:19,35-01.47N,140-20.83E,68,21.36,33.7892
981,2022/8/20,16:20,35-01.57N,140-21.15E,68,21.473,33.785
982,2022/8/20,16:21,35-01.68N,140-21.46E,68,21.492,33.7865
983,2022/8/20,16:22,35-01.77N,140-21.74E,68,21.653,33.7789
984,2022/8/20,16:23,35-01.86N,140-22.03E,68,21.489,33.7781
985,2022/8/20,16:24,35-01.97N,140-22.34E,67,21.388,33.7645
986,2022/8/20,16:25,35-02.07N,140-22.65E,67,21.48,33.7585
987,2022/8/20,16:26,35-02.17N,140-22.96E,68,21.351,33.7622
988,2022/8/20,16:27,35-02.28N,140-23.28E,67,21.538,33.7591
989,2022/8/20,16:28,35-02.39N,140-23.59E,67,21.946,33.7683
990,2022/8/20,16:29,35-02.50N,140-23.90E,67,21.785,33.7602
991,2022/8/20,16:30,35-02.61N,140-24.21E,67,21.585,33.7309
992,2022/8/20,16:31,35-02.72N,140-24.53E,64,21.174,33.7111
993,2022/8/20,16:32,35-02.85N,140-24.82E,63,21.638,33.7261
994,2022/8/20,16:33,35-02.99N,140-25.11E,57,21.47,33.7605
995,2022/8/20,16:34,35-03.14N,140-25.40E,57,21.634,33.7787
996,2022/8/20,16:35,35-03.30N,140-25.68E,56,21.242,33.7965
997,2022/8/20,16:36,35-03.45N,140-25.97E,57,21.63,33.8015
998,2022/8/20,16:37,35-03.61N,140-26.27E,56,21.957,33.8269
999,2022/8/20,16:38,35-03.76N,140-26.55E,57,22.235,33.8269
1000,2022/8/20,16:39,35-03.91N,140-26.84E,58,22.027,33.8104
1001,2022/8/20,16:40,35-04.07N,140-27.14E,57,22,33.7935
1002,2022/8/20,16:41,35-04.23N,140-27.40E,52,21.938,33.7941
1003,2022/8/20,16:42,35-04.41N,140-27.67E,52,21.863,33.7977
1004,2022/8/20,16:43,35-04.59N,140-27.96E,52,22.089,33.7927
1005,2022/8/20,16:44,35-04.76N,140-28.22E,51,22.254,33.7908
1006,2022/8/20,16:45,35-04.94N,140-28.51E,53,22.46,33.7837
1007,2022/8/20,16:46,35-05.11N,140-28.78E,51,22.503,33.7876
1008,2022/8/20,16:47,35-05.29N,140-29.06E,51,21.604,33.7855
1009,2022/8/20,16:48,35-05.46N,140-29.34E,53,21.726,33.7612
1010,2022/8/20,16:49,35-05.63N,140-29.61E,53,20.234,33.7786
1011,2022/8/20,16:50,35-05.80N,140-29.89E,52,20.969,33.7706
1012,2022/8/20,16:51,35-05.98N,140-30.17E,53,21.314,33.8046
1013,2022/8/20,16:52,35-06.16N,140-30.42E,45,20.836,33.8303
1014,2022/8/20,16:53,35-06.38N,140-30.63E,37,21.058,33.8201
1015,2022/8/20,16:54,35-06.60N,140-30.83E,36,21.654,33.842
1016,2022/8/20,16:55,35-06.83N,140-31.05E,37,22.5,33.8517
1017,2022/8/20,16:56,35-07.05N,140-31.25E,37,22.71,33.8618
1018,2022/8/20,16:57,35-07.28N,140-31.46E,37,22.769,33.8263
1019,2022/8/20,16:58,35-07.51N,140-31.68E,37,22.85,33.7856
1020,2022/8/20,16:59,35-07.73N,140-31.89E,37,22.865,33.758
1021,2022/8/20,17:00,35-07.96N,140-32.11E,37,22.812,33.734
1022,2022/8/20,17:01,35-08.18N,140-32.32E,37,22.7,33.7061
1023,2022/8/20,17:02,35-08.41N,140-32.53E,37,22.695,33.6814
1024,2022/8/20,17:03,35-08.64N,140-32.75E,37,22.555,33.672
1025,2022/8/20,17:04,35-08.85N,140-32.96E,38,22.423,33.6583
1026,2022/8/20,17:05,35-09.09N,140-33.18E,37,22.314,33.6509
1027,2022/8/20,17:06,35-09.31N,140-33.39E,38,22.313,33.6623
1028,2022/8/20,17:07,35-09.53N,140-33.60E,38,22.099,33.6594
1029,2022/8/20,17:08,35-09.76N,140-33.82E,37,22,33.6541
1030,2022/8/20,17:09,35-09.98N,140-34.03E,37,21.964,33.6686
1031,2022/8/20,17:10,35-10.21N,140-34.25E,37,22.009,33.6818
1032,2022/8/20,17:11,35-10.44N,140-34.47E,38,22.189,33.6889
1033,2022/8/20,17:12,35-10.66N,140-34.68E,37,22.012,33.689
1034,2022/8/20,17:13,35-10.89N,140-34.89E,37,22.103,33.6747
1035,2022/8/20,17:14,35-11.11N,140-35.10E,37,22.111,33.6817
1036,2022/8/20,17:15,35-11.34N,140-35.32E,37,22.085,33.6838
1037,2022/8/20,17:16,35-11.56N,140-35.53E,37,22.076,33.6818
1038,2022/8/20,17:17,35-11.79N,140-35.74E,38,21.987,33.6853
1039,2022/8/20,17:18,35-12.02N,140-35.96E,37,21.938,33.6845
1040,2022/8/20,17:19,35-12.23N,140-36.17E,37,21.881,33.6928
1041,2022/8/20,17:20,35-12.46N,140-36.38E,38,21.883,33.6884
1042,2022/8/20,17:21,35-12.69N,140-36.60E,37,21.873,33.6949
1043,2022/8/20,17:22,35-12.91N,140-36.81E,37,21.885,33.6978
1044,2022/8/20,17:23,35-13.14N,140-37.02E,37,21.902,33.7029
1045,2022/8/20,17:24,35-13.36N,140-37.23E,37,21.86,33.706
1046,2022/8/20,17:25,35-13.59N,140-37.45E,37,21.755,33.7046
1047,2022/8/20,17:26,35-13.82N,140-37.66E,37,21.714,33.7069
1048,2022/8/20,17:27,35-14.05N,140-37.88E,37,21.514,33.7076
1049,2022/8/20,17:28,35-14.28N,140-38.09E,37,21.779,33.713
1050,2022/8/20,17:29,35-14.50N,140-38.30E,37,21.719,33.7241
1051,2022/8/20,17:30,35-14.73N,140-38.52E,36,21.791,33.7199
1052,2022/8/20,17:31,35-14.96N,140-38.73E,37,21.848,33.7288
1053,2022/8/20,17:32,35-15.19N,140-38.94E,37,21.86,33.7263
1054,2022/8/20,17:33,35-15.42N,140-39.16E,37,21.866,33.7292
1055,2022/8/20,17:34,35-15.65N,140-39.37E,36,21.913,33.7279
1056,2022/8/20,17:35,35-15.88N,140-39.59E,36,21.926,33.7259
1057,2022/8/20,17:36,35-16.11N,140-39.80E,37,21.91,33.7201
1058,2022/8/20,17:37,35-16.34N,140-40.01E,37,21.964,33.7275
1059,2022/8/20,17:38,35-16.57N,140-40.23E,37,22.033,33.7224
1060,2022/8/20,17:39,35-16.80N,140-40.45E,37,21.986,33.7185
1061,2022/8/20,17:40,35-17.04N,140-40.66E,36,22.021,33.7149
1062,2022/8/20,17:41,35-17.27N,140-40.87E,37,22.138,33.7122
1063,2022/8/20,17:42,35-17.49N,140-41.08E,36,22.115,33.7167
1064,2022/8/20,17:43,35-17.73N,140-41.30E,36,22.137,33.7078
1065,2022/8/20,17:44,35-17.96N,140-41.51E,37,22.147,33.7083
1066,2022/8/20,17:45,35-18.19N,140-41.72E,37,22.084,33.7062
1067,2022/8/20,17:46,35-18.42N,140-41.93E,36,21.763,33.7064
1068,2022/8/20,17:47,35-18.66N,140-42.15E,36,21.879,33.6955
1069,2022/8/20,17:48,35-18.89N,140-42.37E,36,22.107,33.7056
1070,2022/8/20,17:49,35-19.12N,140-42.58E,36,22.358,33.7137
1071,2022/8/20,17:50,35-19.35N,140-42.79E,37,22.422,33.7169
1072,2022/8/20,17:51,35-19.59N,140-43.01E,36,22.458,33.7113
1073,2022/8/20,17:52,35-19.82N,140-43.23E,36,22.457,33.7019
1074,2022/8/20,17:53,35-20.06N,140-43.44E,36,22.441,33.6944
1075,2022/8/20,17:54,35-20.29N,140-43.65E,36,22.512,33.679
1076,2022/8/20,17:55,35-20.53N,140-43.87E,37,22.544,33.6756
1077,2022/8/20,17:56,35-20.76N,140-44.08E,36,22.588,33.6698
1078,2022/8/20,17:57,35-21.00N,140-44.30E,36,22.578,33.6708
1079,2022/8/20,17:58,35-21.24N,140-44.51E,36,22.582,33.6665
1080,2022/8/20,17:59,35-21.47N,140-44.73E,37,22.566,33.6608
1081,2022/8/20,18:00,35-21.71N,140-44.95E,36,22.527,33.653
1082,2022/8/20,18:01,35-21.95N,140-45.17E,36,22.498,33.6437
1083,2022/8/20,18:02,35-22.18N,140-45.38E,36,22.487,33.6389
1084,2022/8/20,18:03,35-22.42N,140-45.60E,37,22.51,33.6452
1085,2022/8/20,18:04,35-22.65N,140-45.81E,37,22.53,33.6408